Content
SEND FEEDBACK

Daily
Averages
Monthly
Summary
United States of America

TUCSON, ARIZONA


Home > North America > United States > Arizona
Elevation: 2584 feet     Latitude: 32 08N     Longitude: 110 56W

WEATHER
 
SELECT A DAY
Number of Records: 110,984;   Date Range: 1/1/02 - 12/19/14
 
SHARE

PRINT THIS DATA

[ ← Previous Day ]
WEATHER ALMANAC - FEBRUARY 4, 2013
[ Next Day → ]
[ °C ]   °F
Weather ElementAverageHighLow
Temperature57.2 °F69.1 °F (2:53 pm)46.9 °F (4:53 am)
Dewpoint37.1 °F39 °F (1:53 am)34 °F (12:53 pm)
Humidity49.7 %71 % (4:53 am)29 % (2:53 pm)
Barometer29.96 in30.02 in (9:53 am)29.90 in (3:53 pm)
Wind Speed5.1 mph10.4 mph (4:53 pm)
Weather ElementAverage
Visibility10 mi
Wind DirectionSSE (164.1 °)

Weather ElementTotal
Precipitation---
Heating Degree Days7 (Base 65)
Growing Degree Days8 (Base 50)
Averaged from 22 records on February 4, 2013
WEATHER CONDITIONS BREAKOUT
WIND DIRECTION BREAKOUT
WEATHER BY HOUR - FEBRUARY 4, 2013
[ °C ]   °F
Local TimeTemperatureDewpointHumidityBarometerVisibilityWind DirectionWind SpeedGust SpeedPrecipitationEventsConditions
1:53 AM52.0 °F39.0 °F61 %29.98 in10.0 miESE (120°)3.5 mphPartly Cloudy
3:53 AM50.0 °F39.0 °F66 %29.96 in10.0 miSE (140°)8.1 mphMostly Cloudy
4:53 AM46.9 °F37.9 °F71 %29.96 in10.0 miSSE (160°)4.6 mphClear
5:53 AM46.9 °F37.0 °F68 %29.96 in10.0 miCalmClear
6:53 AM46.9 °F37.0 °F68 %29.98 in10.0 miCalmClear
7:53 AM48.0 °F37.0 °F66 %29.99 in10.0 miSSE (150°)8.1 mphClear
8:53 AM50.0 °F37.9 °F63 %30.01 in10.0 miSSE (160°)5.8 mphClear
9:53 AM55.0 °F37.9 °F53 %30.02 in10.0 miESE (120°)4.6 mphClear
10:53 AM59.0 °F37.0 °F44 %30.01 in10.0 miSouth (170°)3.5 mphClear
11:53 AM63.0 °F35.1 °F35 %29.98 in10.0 miVariable3.5 mphClear
12:53 PM66.0 °F34.0 °F30 %29.95 in10.0 miVariable3.5 mphClear
1:53 PM68.0 °F35.1 °F30 %29.92 in10.0 miWest (280°)3.5 mphClear
2:53 PM69.1 °F35.1 °F29 %29.91 in10.0 miNNE (20°)3.5 mphClear
3:53 PM69.1 °F36.0 °F30 %29.90 in10.0 miWSW (250°)6.9 mphClear
4:53 PM68.0 °F36.0 °F31 %29.91 in10.0 miNorth (350°)10.4 mphClear
5:53 PM64.9 °F36.0 °F34 %29.91 in10.0 miNorth (350°)10.4 mphClear
6:53 PM62.1 °F37.0 °F39 %29.93 in10.0 miNW (320°)5.8 mphClear
7:53 PM59.0 °F37.9 °F46 %29.95 in10.0 miWNW (300°)4.6 mphClear
8:53 PM55.9 °F39.0 °F53 %29.97 in10.0 miWSW (250°)5.8 mphClear
9:53 PM54.0 °F39.0 °F57 %29.98 in10.0 miSSE (150°)5.8 mphClear
10:53 PM53.1 °F39.0 °F59 %29.98 in10.0 miSouth (190°)4.6 mphClear
11:53 PM51.1 °F37.9 °F61 %29.98 in10.0 miSE (130°)5.8 mphClear
Hourly data recorded from KTUS, located miles away from Tucson, Arizona







STORIES FROM OUR PARTNERS